Location: Voyageurs National Park
(48.5020°N, 92.9292°W)
Time: 01:51:12
(UTC-06:00)

Amateur Radio Satellites - All Passes

Search period start: 08 December 2016 01:21
Search period end: 09 December 2016 01:21
Location: Voyageurs National Park, 48.5020°N, 92.9292°W

Satellite Date Start Highest point End Downlink Frequencies (MHz)
Time Altitude Azimuth
POPSAT HIP 1 08 Dec 01:33:37 01:36:08 16° 301° (WNW) 01:38:38 437.405
PHONESAT 2.4 08 Dec 01:35:38 01:37:16 15° 177° (S) 01:38:54 2401.200-2431.200
Oscar 19 08 Dec 01:38:15 01:43:25 61° 102° (ESE) 01:48:34 437.125/150
ITUPSAT 1 08 Dec 01:43:03 01:47:48 71° 72° (ENE) 01:52:35 437.325
O/OREOS (USA 219) 08 Dec 01:44:26 01:48:47 50° 250° (WSW) 01:53:06 437.305
Gurwin Techsat 1B 08 Dec 01:51:12 01:56:17 43° 98° (E) 02:01:20 435.225
TISAT 1 08 Dec 01:54:58 01:58:06 20° 268° (W) 02:01:16 437.305
GONETS M04 08 Dec 01:55:41 02:04:03 49° 289° (WNW) 02:12:27
BUGSAT 1 08 Dec 02:00:05 02:03:13 21° 298° (WNW) 02:06:19 437.445
Cosmos 2499 08 Dec 02:00:19 02:08:29 43° 292° (WNW) 02:16:53 435.465 / 435.565
MOZHAYETS 4 08 Dec 02:02:07 02:06:05 30° 65° (ENE) 02:10:04
JAS-2 08 Dec 02:03:17 02:04:58 12° 309° (NW) 02:06:40 435.910
SO-50 08 Dec 02:06:06 02:09:20 18° 27° (NNE) 02:12:31 436.795
ITAMSAT 1 08 Dec 02:12:26 02:15:44 17° 89° (E) 02:19:00 435.822/435.867
KKS-1 08 Dec 02:17:35 02:20:53 21° 61° (ENE) 02:24:12 437.445
STARS 08 Dec 02:19:43 02:21:12 12° 55° (NE) 02:22:40 437.465
AUBIESAT-1 08 Dec 02:33:49 02:37:29 28° 261° (W) 02:41:20 437.475
AO-7 08 Dec 02:38:24 02:44:52 24° 90° (E) 02:51:18 29.400- 29.500
AO-85 08 Dec 02:41:41 02:46:25 58° 313° (NW) 02:50:49 145.980
SWISSCUBE 08 Dec 02:48:49 02:52:53 27° 266° (W) 02:56:56 437.505
M-CUBED/EXP-1 PRIME 08 Dec 02:49:03 02:51:53 17° 266° (W) 02:54:51 437.505
BEESAT 08 Dec 02:52:35 02:56:40 28° 265° (W) 03:00:46 436.000
PHONESAT 2.4 08 Dec 03:10:57 03:11:50 11° 194° (SSW) 03:12:45 2401.200-2431.200
Oscar 19 08 Dec 03:18:20 03:22:20 23° 300° (WNW) 03:26:20 437.125/150
ITUPSAT 1 08 Dec 03:23:15 03:26:10 16° 271° (W) 03:29:04 437.325
YUBILEINY 08 Dec 03:31:00 03:35:34 15° 47° (NE) 03:40:07 435.215
Gurwin Techsat 1B 08 Dec 03:31:26 03:36:06 32° 297° (WNW) 03:40:45 435.225
MOZHAYETS 4 08 Dec 03:38:57 03:43:11 35° 264° (W) 03:47:24
SO-50 08 Dec 03:46:03 03:50:37 70° 48° (NE) 03:55:05 436.795
CUBESAT XI-V 08 Dec 03:47:07 03:51:32 49° 70° (ENE) 03:55:59 437.345
ITAMSAT 1 08 Dec 03:50:36 03:55:47 75° 288° (WNW) 04:00:57 435.822/435.867
STARS 08 Dec 03:52:21 03:56:46 77° 73° (ENE) 04:01:15 437.465
KKS-1 08 Dec 03:52:42 03:57:06 54° 259° (W) 04:01:32 437.445
GONETS M04 08 Dec 04:00:07 04:03:36 13° 316° (NW) 04:07:05
Cosmos 2499 08 Dec 04:01:48 04:04:37 12° 318° (NW) 04:07:25 435.465 / 435.565
BEESAT 3 08 Dec 04:10:10 04:13:19 24° 116° (ESE) 04:16:29 437.485
AO-85 08 Dec 04:24:51 04:27:41 16° 333° (NNW) 04:30:24 145.980
AO-7 08 Dec 04:30:13 04:38:39 87° 292° (WNW) 04:47:04 29.400- 29.500
GOMX 1 08 Dec 04:42:31 04:45:47 16° 86° (E) 04:49:01 467.674
BEESAT 2 08 Dec 04:44:02 04:47:17 25° 116° (ESE) 04:50:34 435.950
HORYU 2 08 Dec 04:54:30 04:58:08 24° 94° (E) 05:01:43 437.375
STRAND 1 08 Dec 05:05:11 05:08:34 18° 57° (ENE) 05:11:58 437.568
Cosmos 2504 08 Dec 05:08:50 05:15:59 26° 58° (ENE) 05:22:50 435.465 / 435.565
BRITE-PL 08 Dec 05:16:41 05:22:04 60° 100° (E) 05:27:40 437.365/2234.400
CUBESAT XI-V 08 Dec 05:25:40 05:29:11 21° 269° (W) 05:32:43 437.345
YUBILEINY 08 Dec 05:26:09 05:34:50 56° 73° (ENE) 05:43:28 435.215
SO-50 08 Dec 05:27:31 05:30:35 18° 248° (WSW) 05:33:36 436.795
STARS 08 Dec 05:31:34 05:33:41 13° 272° (W) 05:35:47 437.465
ITAMSAT 1 08 Dec 05:31:51 05:34:24 14° 307° (NW) 05:36:57 435.822/435.867
CUTE-I 08 Dec 05:41:15 05:45:33 24° 92° (E) 05:49:49 437.470
BEESAT 3 08 Dec 05:46:58 05:50:43 44° 315° (NW) 05:54:33 437.485
RS-15 08 Dec 05:51:14 06:00:30 28° 101° (E) 06:10:02 29.354- 29.394
NOAA 15 08 Dec 05:56:13 06:01:02 34° 96° (E) 06:05:50 137.62
Cosmos 2491 08 Dec 06:00:10 06:08:02 39° 85° (E) 06:15:52 435.465 / 435.565
Cubesat XI-IV 08 Dec 06:07:33 06:12:33 39° 97° (E) 06:17:31 437.490
LilacSat-2 08 Dec 06:08:41 06:12:18 41° 98° (E) 06:15:53 437.200
NOAA 18 08 Dec 06:09:42 06:14:22 27° 94° (E) 06:19:00 137.9125
AIST 1 08 Dec 06:13:22 06:17:41 48° 76° (ENE) 06:21:57
DOVE 4 08 Dec 06:17:57 06:23:02 45° 97° (E) 06:27:58 437.250
GOMX 1 08 Dec 06:19:00 06:24:32 88° 285° (WNW) 06:30:01 467.674
BEESAT 2 08 Dec 06:21:05 06:24:53 43° 315° (NW) 06:28:43 435.950
HO-68 08 Dec 06:23:28 06:27:07 14° 84° (E) 06:30:44 435.675
AO-7 08 Dec 06:23:52 06:30:26 27° 313° (NW) 06:37:00 29.400- 29.500
HORYU 2 08 Dec 06:30:39 06:34:50 41° 292° (WNW) 06:38:58 437.375
STRAND 1 08 Dec 06:42:01 06:47:09 80° 255° (WSW) 06:52:20 437.568
CUTE 1.7 + AOD 2 08 Dec 06:48:17 06:50:11 13° 88° (E) 06:52:06 437.475
BRITE-PL 08 Dec 06:55:50 07:00:11 26° 298° (WNW) 07:04:43 437.365/2234.400
Cosmos 2504 08 Dec 07:01:44 07:10:38 87° 262° (W) 07:19:00 435.465 / 435.565
CANX-2 08 Dec 07:05:42 07:09:01 22° 93° (E) 07:12:19 2200.000
PRISM 08 Dec 07:13:40 07:16:25 18° 61° (ENE) 07:19:11 437.425
CINEMA 3 08 Dec 07:19:34 07:24:12 44° 97° (E) 07:28:37 145.822/145.860
CUTE-I 08 Dec 07:20:43 07:25:57 55° 291° (WNW) 07:31:06 437.470
CUBEBUG 2 08 Dec 07:23:14 07:25:14 13° 87° (E) 07:27:13 437.445
YUBILEINY 08 Dec 07:23:25 07:31:22 40° 275° (W) 07:39:18 435.215
SEEDS 08 Dec 07:26:10 07:29:25 21° 92° (E) 07:32:40 437.485
BEESAT 3 08 Dec 07:27:41 07:29:21 12° 337° (NNW) 07:31:01 437.485
AIST 2 08 Dec 07:31:18 07:35:04 36° 119° (ESE) 07:38:55 435.215
COMPASS 1 08 Dec 07:32:21 07:35:08 17° 91° (E) 07:37:54 437.405
NOAA 15 08 Dec 07:35:59 07:40:51 39° 295° (WNW) 07:45:42 137.62
LilacSat-2 08 Dec 07:43:39 07:46:20 19° 296° (WNW) 07:48:59 437.200
Cubesat XI-IV 08 Dec 07:47:46 07:52:35 35° 296° (WNW) 07:57:21 437.490
NOAA 18 08 Dec 07:49:56 07:55:19 52° 292° (WNW) 08:00:38 137.9125
AO-85 08 Dec 07:50:02 07:52:15 14° 23° (NNE) 07:54:24 145.980
AIST 1 08 Dec 07:51:49 07:54:55 19° 274° (W) 07:57:59
DOVE 4 08 Dec 07:55:55 08:00:32 31° 296° (WNW) 08:05:01 437.250
Cosmos 2491 08 Dec 07:56:00 08:04:35 56° 287° (WNW) 08:13:11 435.465 / 435.565
GOMX 1 08 Dec 07:58:24 08:01:51 17° 303° (WNW) 08:05:20 467.674
RS-15 08 Dec 07:59:24 08:11:18 86° 126° (SE) 08:23:44 29.354- 29.394
UWE-3 08 Dec 07:59:45 08:02:52 19° 91° (E) 08:05:56 435.000/436.395/437.385
BEESAT 2 08 Dec 08:02:00 08:03:42 12° 337° (NNW) 08:05:23 435.950
HO-68 08 Dec 08:08:55 08:16:09 71° 104° (ESE) 08:23:19 435.675
CUTE 1.7 + AOD 2 08 Dec 08:22:19 08:26:32 72° 286° (WNW) 08:30:45 437.475
STRAND 1 08 Dec 08:25:25 08:27:11 12° 275° (W) 08:28:55 437.568
UNISAT 6 08 Dec 08:28:53 08:32:47 27° 64° (ENE) 08:36:39 437.425
AAUSAT CUBESAT 2 08 Dec 08:34:05 08:38:11 57° 100° (E) 08:42:16 437.432
ZACube-1 08 Dec 08:34:58 08:38:35 27° 94° (E) 08:42:08 437.345
CANX-2 08 Dec 08:41:04 08:45:02 41° 290° (WNW) 08:49:00 2200.000
FUNcube-1 08 Dec 08:41:12 08:44:52 28° 94° (E) 08:48:29 145.935
PRISM 08 Dec 08:47:21 08:51:21 54° 260° (W) 08:55:23 437.425
JAS-2 08 Dec 08:49:30 08:52:49 16° 55° (NE) 08:55:59 435.910
Cosmos 2504 08 Dec 08:56:36 09:02:42 22° 285° (WNW) 09:08:36 435.465 / 435.565
CINEMA 3 08 Dec 08:57:07 09:01:06 26° 297° (WNW) 09:04:56 145.822/145.860
TIGRISAT 08 Dec 08:57:26 09:01:52 44° 69° (ENE) 09:06:16 435.000
CUBEBUG 2 08 Dec 08:58:03 09:02:28 74° 286° (WNW) 09:06:43 437.445
ANTELSAT 08 Dec 08:59:29 09:03:59 49° 70° (ENE) 09:08:26 437.575/2403.000
SEEDS 08 Dec 09:01:20 09:05:17 41° 290° (WNW) 09:09:13 437.485
CUTE-I 08 Dec 09:03:46 09:04:52 11° 311° (NW) 09:05:58 437.470
COMPASS 1 08 Dec 09:06:56 09:10:59 51° 289° (WNW) 09:15:02 437.405
Oscar 11 08 Dec 09:08:17 09:12:31 52° 100° (E) 09:16:44 145.826/435.025
AIST 2 08 Dec 09:09:47 09:13:35 34° 319° (NW) 09:17:26 435.215
DELFI C3 08 Dec 09:11:47 09:14:54 22° 93° (E) 09:18:01 145.870
POPSAT HIP 1 08 Dec 09:20:03 09:21:27 11° 56° (NE) 09:22:50 437.405
CUSAT 1 08 Dec 09:26:40 09:29:32 90° 102° (ESE) 09:32:09 437.405
AO-85 08 Dec 09:29:37 09:33:37 54° 47° (NE) 09:37:26 145.980
NOAA 18 08 Dec 09:33:30 09:34:46 11° 313° (NW) 09:36:01 137.9125
UWE-3 08 Dec 09:35:28 09:39:38 47° 289° (WNW) 09:43:39 435.000/436.395/437.385
HUMSAT D 08 Dec 09:41:07 09:44:28 24° 94° (E) 09:47:47 437.325/437.525
PCSat 08 Dec 09:45:13 09:47:12 12° 102° (ESE) 09:49:11 145.827
Cosmos 2499 08 Dec 09:54:01 10:01:02 26° 58° (ENE) 10:07:40 435.465 / 435.565
HO-68 08 Dec 09:57:18 10:03:21 30° 305° (NW) 10:09:23 435.675
Cosmos 2491 08 Dec 09:59:21 10:03:51 15° 313° (NW) 10:08:21 435.465 / 435.565
GONETS M04 08 Dec 10:04:13 10:11:27 28° 60° (ENE) 10:18:40
UNISAT 6 08 Dec 10:04:54 10:09:19 41° 262° (W) 10:13:43 437.425
NANOSAT C BR1 08 Dec 10:10:04 10:13:48 30° 66° (ENE) 10:17:32 145.865
AAUSAT CUBESAT 2 08 Dec 10:10:33 10:13:15 17° 299° (WNW) 10:15:58 437.432
ZACube-1 08 Dec 10:11:07 10:14:56 33° 293° (WNW) 10:18:40 437.345
RS-15 08 Dec 10:13:50 10:25:19 46° 335° (NNW) 10:37:07 29.354- 29.394
FUNcube-1 08 Dec 10:17:24 10:21:08 31° 293° (WNW) 10:24:47 145.935
QB50P2 08 Dec 10:18:05 10:22:07 40° 69° (ENE) 10:26:08 145.880/145.840
POLYITAN 1 08 Dec 10:18:35 10:22:34 39° 69° (ENE) 10:26:34 437.675
DUCHIFAT 1 08 Dec 10:30:34 10:34:36 43° 69° (ENE) 10:38:39 145.980
QB50P1 08 Dec 10:30:36 10:34:44 50° 71° (ENE) 10:38:54 145.935-145.965
JAS-2 08 Dec 10:31:00 10:37:13 80° 74° (ENE) 10:42:48 435.910
TIGRISAT 08 Dec 10:34:56 10:38:44 24° 267° (W) 10:42:30 435.000
DANDE 08 Dec 10:36:19 10:40:18 55° 283° (WNW) 10:43:25 436.750
ANTELSAT 08 Dec 10:37:18 10:40:56 22° 268° (W) 10:44:33 437.575/2403.000
CUBEBUG 2 08 Dec 10:37:20 10:38:14 11° 306° (NW) 10:39:09 437.445
Oscar 11 08 Dec 10:45:14 10:48:18 19° 298° (WNW) 10:51:22 145.826/435.025
DELFI C3 08 Dec 10:46:09 10:49:50 37° 291° (WNW) 10:53:31 145.870
BEESAT 3 08 Dec 10:46:13 10:48:14 13° 25° (NNE) 10:50:13 437.485
AIST 2 08 Dec 10:51:52 10:53:17 11° 342° (NNW) 10:54:43 435.215
POPSAT HIP 1 08 Dec 10:52:13 10:56:31 82° 74° (ENE) 11:00:50 437.405
AO-85 08 Dec 11:10:51 11:13:36 18° 247° (WSW) 11:16:19 145.980
HUMSAT D 08 Dec 11:16:27 11:20:10 35° 292° (WNW) 11:23:52 437.325/437.525
BUGSAT 1 08 Dec 11:16:52 11:21:00 53° 71° (ENE) 11:25:10 437.445
BEESAT 2 08 Dec 11:20:45 11:22:56 14° 26° (NNE) 11:25:05 435.950
Oscar 19 08 Dec 11:21:23 11:25:11 21° 59° (ENE) 11:29:02 437.125/150
PCSat 08 Dec 11:24:14 11:29:37 73° 121° (ESE) 11:35:03 145.827
AISAT 08 Dec 11:31:06 11:34:46 24° 93° (E) 11:38:24 437.250
ESTCUBE 1 08 Dec 11:35:01 11:39:29 56° 101° (E) 11:43:56 437.505/2401.250
Gurwin Techsat 1B 08 Dec 11:38:38 11:42:04 18° 56° (NE) 11:45:31 435.225
NANOSAT C BR1 08 Dec 11:45:41 11:49:29 31° 264° (W) 11:53:18 145.865
Cosmos 2499 08 Dec 11:46:40 11:55:22 84° 263° (W) 12:03:24 435.465 / 435.565
CUBEBUG 1 08 Dec 11:49:50 11:54:11 50° 100° (E) 11:58:29 437.445
AO-7 08 Dec 11:53:48 11:58:11 16° 34° (NE) 12:02:33 29.400- 29.500
QB50P2 08 Dec 11:54:37 11:58:03 23° 267° (W) 12:01:29 145.880/145.840
POLYITAN 1 08 Dec 11:54:59 11:58:29 24° 266° (W) 12:02:00 437.675
GONETS M04 08 Dec 12:00:35 12:09:19 80° 264° (W) 12:18:03
DUCHIFAT 1 08 Dec 12:07:13 12:10:29 21° 268° (W) 12:13:46 145.980
VELOX 1 08 Dec 12:07:23 12:11:45 50° 100° (E) 12:16:06 145.980
QB50P1 08 Dec 12:07:45 12:10:47 19° 269° (W) 12:13:50 145.935-145.965
DX 1 08 Dec 12:12:13 12:16:09 31° 96° (E) 12:20:04 434.975-435.025
UKube-1 08 Dec 12:14:21 12:17:58 25° 94° (E) 12:21:33 .
JAS-2 08 Dec 12:18:50 12:22:52 18° 270° (W) 12:26:39 435.910
SPROUT 08 Dec 12:21:09 12:25:20 48° 99° (E) 12:29:28 437.525
BEESAT 3 08 Dec 12:22:50 12:26:45 51° 47° (NE) 12:30:39 437.485
RS-15 08 Dec 12:30:24 12:41:39 38° 8° (N) 12:52:54 29.354- 29.394
POPSAT HIP 1 08 Dec 12:31:20 12:32:52 12° 273° (W) 12:34:24 437.405
50 SAT 08 Dec 12:44:31 12:48:05 68° 285° (WNW) 12:51:37 437.505
BUGSAT 1 08 Dec 12:53:49 12:56:41 17° 269° (W) 12:59:35 437.445
BEESAT 2 08 Dec 12:57:36 13:01:35 54° 47° (NE) 13:05:33 435.950
Oscar 19 08 Dec 12:58:58 13:04:04 65° 258° (WSW) 13:09:13 437.125/150
AISAT 08 Dec 13:07:10 13:11:24 42° 292° (WNW) 13:15:35 437.250
PCSat 08 Dec 13:08:57 13:13:33 27° 322° (NW) 13:18:10 145.827
ESTCUBE 1 08 Dec 13:12:39 13:15:55 20° 299° (WNW) 13:19:11 437.505/2401.250
Gurwin Techsat 1B 08 Dec 13:16:01 13:21:21 86° 254° (WSW) 13:26:44 435.225
CUBEBUG 1 08 Dec 13:26:47 13:30:08 21° 298° (WNW) 13:33:30 437.445
ITAMSAT 1 08 Dec 13:33:28 13:38:16 38° 65° (ENE) 13:43:04 435.822/435.867
TISAT 1 08 Dec 13:33:34 13:37:41 48° 100° (E) 13:41:45 437.305
AO-7 08 Dec 13:41:10 13:48:59 48° 58° (ENE) 13:56:51 29.400- 29.500
ITUPSAT 1 08 Dec 13:41:17 13:43:40 14° 88° (E) 13:46:01 437.325
Cosmos 2499 08 Dec 13:41:24 13:47:05 20° 286° (WNW) 13:52:33 435.465 / 435.565
VELOX 1 08 Dec 13:44:30 13:47:54 22° 298° (WNW) 13:51:16 145.980
DX 1 08 Dec 13:48:25 13:52:19 31° 294° (WNW) 13:56:11 434.975-435.025
UKube-1 08 Dec 13:50:05 13:54:07 38° 292° (WNW) 13:58:07 .
SPROUT 08 Dec 13:57:45 14:00:57 21° 298° (WNW) 14:04:08 437.525
GONETS M04 08 Dec 13:59:12 14:04:41 19° 286° (WNW) 14:10:13
BEESAT 3 08 Dec 14:01:05 14:04:05 21° 245° (WSW) 14:07:04 437.485
AUBIESAT-1 08 Dec 14:08:54 14:11:50 17° 94° (E) 14:14:41 437.475
AIST 2 08 Dec 14:10:55 14:13:54 18° 30° (NNE) 14:16:52 435.215
M-CUBED/EXP-1 PRIME 08 Dec 14:22:46 14:26:45 27° 99° (E) 14:30:36 437.505
O/OREOS (USA 219) 08 Dec 14:24:23 14:25:51 11° 97° (E) 14:27:17 437.305
BEESAT 2 08 Dec 14:36:06 14:39:03 20° 246° (WSW) 14:42:00 435.950
SWISSCUBE 08 Dec 14:44:04 14:48:46 57° 101° (E) 14:53:26 437.505
RS-15 08 Dec 14:44:48 14:57:09 63° 40° (NE) 15:09:11 29.354- 29.394
BEESAT 08 Dec 14:47:48 14:52:30 56° 101° (E) 14:57:10 436.000
BRITE-PL 08 Dec 14:56:05 14:58:24 14° 55° (NE) 15:00:47 437.365/2234.400
PCSat 08 Dec 14:56:54 14:58:54 12° 347° (NNW) 15:00:54 145.827
Gurwin Techsat 1B 08 Dec 14:59:37 15:02:07 13° 274° (W) 15:04:37 435.225
TISAT 1 08 Dec 15:09:53 15:13:01 20° 298° (WNW) 15:16:07 437.305
ITAMSAT 1 08 Dec 15:13:03 15:17:46 34° 264° (W) 15:22:31 435.822/435.867
ITUPSAT 1 08 Dec 15:17:19 15:22:07 82° 287° (WNW) 15:26:52 437.325
MOZHAYETS 4 08 Dec 15:29:37 15:33:56 39° 97° (E) 15:38:12
CUTE-I 08 Dec 15:31:19 15:32:44 11° 49° (NE) 15:34:10 437.470
AO-7 08 Dec 15:33:47 15:41:45 49° 259° (W) 15:49:49 29.400- 29.500
ISS 08 Dec 15:36:06 15:38:56 27° 143° (SE) 15:41:47 145.825
KKS-1 08 Dec 15:40:15 15:43:46 22° 93° (E) 15:47:15 437.445
STARS 08 Dec 15:40:38 15:41:31 10° 86° (E) 15:42:24 437.465
AUBIESAT-1 08 Dec 15:42:05 15:46:41 67° 293° (WNW) 15:51:05 437.475
NOAA 15 08 Dec 15:43:25 15:46:13 15° 53° (NE) 15:49:00 137.62
AIST 2 08 Dec 15:48:46 15:53:02 81° 53° (NE) 15:57:16 435.215
DOVE 4 08 Dec 15:53:01 15:54:41 12° 52° (NE) 15:56:22 437.250
GOMX 1 08 Dec 15:54:12 15:57:52 22° 60° (ENE) 16:01:42 467.674
HORYU 2 08 Dec 15:55:43 15:59:50 36° 67° (ENE) 16:03:57 437.375
Cubesat XI-IV 08 Dec 15:55:54 15:59:14 17° 55° (NE) 16:02:35 437.490
M-CUBED/EXP-1 PRIME 08 Dec 15:56:54 16:01:21 43° 297° (WNW) 16:05:37 437.505
O/OREOS (USA 219) 08 Dec 15:59:56 16:04:30 89° 106° (ESE) 16:09:04 437.305
NOAA 18 08 Dec 16:02:19 16:05:14 15° 51° (NE) 16:08:10 137.9125
Cosmos 2491 08 Dec 16:05:06 16:11:57 25° 58° (ENE) 16:18:45 435.465 / 435.565
SWISSCUBE 08 Dec 16:22:37 16:26:11 21° 300° (WNW) 16:29:44 437.505
BEESAT 08 Dec 16:26:19 16:29:56 22° 300° (WNW) 16:33:32 436.000
BRITE-PL 08 Dec 16:31:40 16:36:05 89° 255° (WSW) 16:40:54 437.365/2234.400
PCSat 08 Dec 16:42:40 16:44:53 12° 15° (NNE) 16:47:06 145.827
YUBILEINY 08 Dec 16:43:07 16:45:25 11° 67° (ENE) 16:47:43 435.215
CINEMA 3 08 Dec 16:51:13 16:52:39 11° 53° (NE) 16:54:06 145.822/145.860
LilacSat-2 08 Dec 16:54:01 16:57:33 36° 70° (ENE) 17:01:05 437.200
HO-68 08 Dec 16:56:38 17:01:29 20° 48° (NE) 17:06:21 435.675
ITUPSAT 1 08 Dec 16:56:57 16:59:12 13° 305° (NW) 17:01:27 437.325
RS-15 08 Dec 16:57:51 17:09:38 54° 246° (WSW) 17:21:05 29.354- 29.394
CUTE-I 08 Dec 17:06:28 17:11:42 56° 69° (ENE) 17:16:57 437.470
MOZHAYETS 4 08 Dec 17:07:07 17:10:56 27° 296° (WNW) 17:14:44
ISS 08 Dec 17:11:56 17:15:14 74° 342° (NNW) 17:18:33 145.825
STARS 08 Dec 17:14:05 17:18:33 88° 99° (E) 17:22:58 437.465
KKS-1 08 Dec 17:16:15 17:20:33 46° 291° (WNW) 17:24:49 437.445
CUBESAT XI-V 08 Dec 17:16:41 17:21:22 73° 103° (ESE) 17:26:02 437.345
AUBIESAT-1 08 Dec 17:18:24 17:20:13 12° 312° (NW) 17:22:01 437.475
NOAA 15 08 Dec 17:19:56 17:25:10 79° 73° (ENE) 17:30:27 137.62
DOVE 4 08 Dec 17:26:26 17:31:18 63° 72° (ENE) 17:36:27 437.250
AIST 2 08 Dec 17:28:42 17:30:56 14° 249° (WSW) 17:33:10 435.215
GOMX 1 08 Dec 17:30:51 17:35:29 58° 261° (W) 17:40:31 467.674
HORYU 2 08 Dec 17:32:36 17:36:27 28° 265° (W) 17:40:19 437.375
Cubesat XI-IV 08 Dec 17:33:12 17:38:35 89° 79° (E) 17:44:00 437.490
NOAA 18 08 Dec 17:39:28 17:44:58 72° 71° (ENE) 17:50:32 137.9125
O/OREOS (USA 219) 08 Dec 17:41:46 17:44:35 16° 316° (NW) 17:47:25 437.305
CUTE 1.7 + AOD 2 08 Dec 17:44:30 17:47:04 16° 60° (ENE) 17:49:38 437.475
Cosmos 2504 08 Dec 17:54:34 17:59:42 18° 72° (ENE) 18:04:55 435.465 / 435.565
Cosmos 2491 08 Dec 18:01:19 18:10:06 89° 261° (W) 18:18:50 435.465 / 435.565
CANX-2 08 Dec 18:02:01 18:05:30 26° 65° (ENE) 18:08:59 2200.000
BRITE-PL 08 Dec 18:14:14 18:15:28 11° 277° (W) 18:16:44 437.365/2234.400
SEEDS 08 Dec 18:21:26 18:24:49 24° 65° (ENE) 18:28:12 437.485
CINEMA 3 08 Dec 18:23:52 18:28:48 62° 72° (ENE) 18:33:46 145.822/145.860
CUBEBUG 2 08 Dec 18:24:02 18:27:28 20° 62° (ENE) 18:30:52 437.445
PCSat 08 Dec 18:25:22 18:30:08 30° 39° (NE) 18:34:52 145.827
COMPASS 1 08 Dec 18:26:43 18:29:42 20° 63° (ENE) 18:32:42 437.405
LilacSat-2 08 Dec 18:29:01 18:31:58 21° 267° (W) 18:34:55 437.200
YUBILEINY 08 Dec 18:31:40 18:40:02 55° 90° (E) 18:48:30 435.215
HO-68 08 Dec 18:40:59 18:48:07 75° 69° (ENE) 18:55:19 435.675
AIST 1 08 Dec 18:47:08 18:50:35 23° 87° (E) 18:54:04
CUTE-I 08 Dec 18:47:49 18:52:06 24° 268° (W) 18:56:23 437.470
ISS 08 Dec 18:48:47 18:52:00 46° 2° (N) 18:55:13 145.825
STRAND 1 08 Dec 18:49:06 18:53:22 26° 93° (E) 18:57:37 437.568
STARS 08 Dec 18:52:06 18:54:15 14° 304° (WNW) 18:56:24 437.465
CUBESAT XI-V 08 Dec 18:55:15 18:58:12 17° 301° (WNW) 19:01:11 437.345
UWE-3 08 Dec 18:59:43 19:03:37 28° 65° (ENE) 19:07:28 435.000/436.395/437.385
NOAA 15 08 Dec 19:02:22 19:05:35 16° 271° (W) 19:08:49 137.62
DOVE 4 08 Dec 19:05:52 19:09:28 20° 272° (W) 19:13:12 437.250
RS-15 08 Dec 19:14:40 19:18:56 13° 270° (W) 19:23:10 29.354- 29.394
Cubesat XI-IV 08 Dec 19:16:30 19:19:25 15° 273° (W) 19:22:20 437.490
CUTE 1.7 + AOD 2 08 Dec 19:18:16 19:22:27 64° 259° (W) 19:26:38 437.475
NOAA 18 08 Dec 19:22:15 19:26:12 20° 270° (W) 19:30:10 137.9125
AAUSAT CUBESAT 2 08 Dec 19:27:31 19:31:34 60° 73° (ENE) 19:35:38 437.432
ZACube-1 08 Dec 19:33:49 19:37:56 36° 68° (ENE) 19:42:00 437.345
CANX-2 08 Dec 19:37:21 19:41:13 35° 263° (W) 19:45:08 2200.000
FUNcube-1 08 Dec 19:39:44 19:43:53 37° 69° (ENE) 19:47:58 145.935
Cosmos 2504 08 Dec 19:42:59 19:51:27 73° 94° (E) 20:00:19 435.465 / 435.565
SO-50 08 Dec 19:43:22 19:48:02 57° 123° (ESE) 19:52:39 436.795
CUSAT 1 08 Dec 19:51:59 19:55:40 74° 78° (ENE) 20:00:29 437.405
SEEDS 08 Dec 19:56:30 20:00:22 36° 263° (W) 20:04:14 437.485
CUBEBUG 2 08 Dec 19:59:00 20:03:42 60° 260° (W) 20:08:20 437.445
Cosmos 2491 08 Dec 19:59:36 20:05:43 22° 284° (WNW) 20:11:51 435.465 / 435.565
COMPASS 1 08 Dec 20:00:58 20:04:57 47° 261° (W) 20:08:58 437.405
DELFI C3 08 Dec 20:01:10 20:04:11 22° 64° (ENE) 20:07:13 145.870
CINEMA 3 08 Dec 20:02:42 20:06:19 20° 271° (W) 20:10:00 145.822/145.860
Oscar 11 08 Dec 20:06:19 20:10:35 64° 73° (ENE) 20:14:52 145.826/435.025
PCSat 08 Dec 20:08:34 20:13:57 64° 241° (WSW) 20:19:17 145.827
AIST 1 08 Dec 20:23:56 20:27:58 37° 286° (WNW) 20:32:04
ISS 08 Dec 20:25:24 20:28:43 88° 11° (N) 20:32:03 145.825
PRISM 08 Dec 20:25:51 20:28:25 16° 91° (E) 20:30:59 437.425
STRAND 1 08 Dec 20:27:53 20:32:46 47° 292° (WNW) 20:37:38 437.568
YUBILEINY 08 Dec 20:29:06 20:37:10 40° 293° (WNW) 20:45:21 435.215
HO-68 08 Dec 20:30:51 20:36:32 25° 269° (W) 20:42:17 435.675
UWE-3 08 Dec 20:35:33 20:39:55 39° 263° (W) 20:44:14 435.000/436.395/437.385
HUMSAT D 08 Dec 20:35:42 20:39:18 28° 66° (ENE) 20:42:52 437.325/437.525
ESTCUBE 1 08 Dec 21:04:39 21:06:20 12° 55° (NE) 21:07:59 437.505/2401.250
AAUSAT CUBESAT 2 08 Dec 21:05:10 21:07:27 14° 271° (W) 21:09:44 437.432
DANDE 08 Dec 21:08:09 21:10:58 58° 259° (W) 21:14:23 436.750
ZACube-1 08 Dec 21:10:21 21:14:16 28° 266° (W) 21:18:08 437.345
FUNcube-1 08 Dec 21:16:23 21:20:11 27° 266° (W) 21:23:58 145.935
SO-50 08 Dec 21:24:39 21:28:48 29° 323° (NW) 21:32:55 436.795
DELFI C3 08 Dec 21:35:08 21:38:48 38° 263° (W) 21:42:30 145.870
VELOX 1 08 Dec 21:35:43 21:36:41 11° 54° (NE) 21:37:40 145.980
CUSAT 1 08 Dec 21:36:22 21:37:22 11° 269° (W) 21:38:25 437.405
Cosmos 2504 08 Dec 21:38:14 21:45:41 32° 298° (WNW) 21:53:27 435.465 / 435.565
Oscar 11 08 Dec 21:44:41 21:47:09 15° 271° (W) 21:49:37 145.826/435.025
UNISAT 6 08 Dec 21:52:52 21:56:47 31° 95° (E) 22:00:37 437.425
PCSat 08 Dec 21:55:46 21:56:16 10° 259° (W) 21:56:45 145.827
PRISM 08 Dec 21:59:58 22:04:04 57° 288° (WNW) 22:08:10 437.425
ISS 08 Dec 22:02:21 22:04:54 21° 220° (SW) 22:07:27 145.825
HUMSAT D 08 Dec 22:11:06 22:14:51 31° 264° (W) 22:18:35 437.325/437.525
TIGRISAT 08 Dec 22:21:38 22:25:59 55° 100° (E) 22:30:12 435.000
ANTELSAT 08 Dec 22:23:55 22:28:17 62° 101° (E) 22:32:33 437.575/2403.000
AISAT 08 Dec 22:31:44 22:35:44 34° 66° (ENE) 22:39:46 437.250
YUBILEINY 08 Dec 22:36:10 22:37:12 10° 321° (NW) 22:38:15 435.215
POPSAT HIP 1 08 Dec 22:36:23 22:36:41 10° 86° (E) 22:36:59 437.405
Cosmos 2499 08 Dec 22:37:32 22:42:51 18° 73° (ENE) 22:48:13 435.465 / 435.565
ESTCUBE 1 08 Dec 22:37:55 22:42:23 80° 73° (ENE) 22:46:53 437.505/2401.250
CUBEBUG 1 08 Dec 22:49:02 22:53:22 66° 73° (ENE) 22:57:46 437.445
VELOX 1 08 Dec 23:07:55 23:12:20 71° 72° (ENE) 23:16:46 145.980
SO-50 08 Dec 23:08:46 23:10:45 12° 347° (NNW) 23:12:43 436.795
DX 1 08 Dec 23:11:01 23:15:08 44° 69° (ENE) 23:19:19 434.975-435.025
GONETS M04 08 Dec 23:11:51 23:18:34 26° 79° (ENE) 23:25:17
UKube-1 08 Dec 23:12:10 23:16:04 34° 67° (ENE) 23:20:00 .
SPROUT 08 Dec 23:17:47 23:22:01 59° 72° (ENE) 23:26:17 437.525
JAS-2 08 Dec 23:20:35 23:25:35 45° 99° (E) 23:30:48 435.910
50 SAT 08 Dec 23:22:58 23:26:28 86° 73° (ENE) 23:30:01 437.505
NANOSAT C BR1 08 Dec 23:25:50 23:29:38 31° 96° (E) 23:33:23 145.865
UNISAT 6 08 Dec 23:29:36 23:33:29 31° 294° (WNW) 23:37:18 437.425
QB50P2 08 Dec 23:34:38 23:38:44 43° 99° (E) 23:42:45 145.880/145.840
POLYITAN 1 08 Dec 23:35:06 23:39:09 41° 98° (E) 23:43:09 437.675
M-CUBED/EXP-1 PRIME 08 Dec 23:41:27 23:42:17 10° 46° (NE) 23:43:09 437.505
DUCHIFAT 1 08 Dec 23:46:12 23:50:17 46° 99° (E) 23:54:19 145.980
QB50P1 08 Dec 23:47:01 23:51:12 55° 100° (E) 23:55:20 145.935-145.965
TIGRISAT 08 Dec 23:59:11 00:02:16 19° 299° (WNW) 00:05:18 435.000
ANTELSAT 09 Dec 00:01:39 00:04:32 17° 300° (WNW) 00:07:23 437.575/2403.000
AISAT 09 Dec 00:08:20 00:12:13 29° 265° (W) 00:16:08 437.250
POPSAT HIP 1 09 Dec 00:08:50 00:13:08 90° 157° (SSE) 00:17:21 437.405
PHONESAT 2.4 09 Dec 00:12:14 00:13:24 12° 168° (SSE) 00:14:34 2401.200-2431.200
ESTCUBE 1 09 Dec 00:17:49 00:19:47 13° 273° (W) 00:21:45 437.505/2401.250
SWISSCUBE 09 Dec 00:18:47 00:21:36 16° 57° (ENE) 00:24:26 437.505
BEESAT 09 Dec 00:22:32 00:25:19 16° 56° (ENE) 00:28:05 436.000
Cosmos 2499 09 Dec 00:25:45 00:34:23 73° 95° (E) 00:43:17 435.465 / 435.565
O/OREOS (USA 219) 09 Dec 00:27:08 00:31:26 43° 57° (ENE) 00:35:42 437.305
CUBEBUG 1 09 Dec 00:27:35 00:30:07 15° 271° (W) 00:32:41 437.445
TISAT 1 09 Dec 00:28:19 00:32:30 59° 72° (ENE) 00:36:42 437.305
BUGSAT 1 09 Dec 00:30:06 00:34:14 53° 100° (E) 00:38:17 437.445
VELOX 1 09 Dec 00:46:55 00:49:18 14° 271° (W) 00:51:41 145.980
DX 1 09 Dec 00:48:08 00:51:32 22° 267° (W) 00:54:58 434.975-435.025
UKube-1 09 Dec 00:48:27 00:52:09 27° 265° (W) 00:55:53 .
ITUPSAT 1 09 Dec 00:50:58 00:54:52 26° 62° (ENE) 00:58:47 437.325
SO-50 09 Dec 00:51:23 00:53:15 12° 12° (NNE) 00:55:06 436.795
SPROUT 09 Dec 00:55:39 00:58:20 16° 270° (W) 01:01:03 437.525
AUBIESAT-1 09 Dec 00:56:51 01:00:47 35° 61° (ENE) 01:04:57 437.475
NANOSAT C BR1 09 Dec 01:01:38 01:05:18 29° 294° (WNW) 01:08:57 145.865
JAS-2 09 Dec 01:06:12 01:10:34 28° 298° (WNW) 01:15:03 435.910
Oscar 19 09 Dec 01:06:45 01:11:26 33° 96° (E) 01:16:08 437.125/150
QB50P2 09 Dec 01:10:59 01:14:16 22° 297° (WNW) 01:17:32 145.880/145.840
POLYITAN 1 09 Dec 01:11:23 01:14:43 23° 297° (WNW) 01:18:02 437.675
M-CUBED/EXP-1 PRIME 09 Dec 01:11:33 01:15:45 57° 65° (ENE) 01:20:15 437.505
